Location: Lastadie
(53.4167°N, 14.5667°E)
Time: 06:49:30
(UTC+00:00)

Daily predictions for brighter satellites

Satellite Brightness Start Highest point End
(mag) Time Altitude Azimuth Time Altitude Azimuth Time Altitude Azimuth
Meteor 2-20 4.5 20:10:25 10° S 20:16:31 78° E 20:22:38 10° NNE
USA 267 3.5 20:11:25 10° E 20:17:57 77° NNE 20:24:31 10° WNW
DNEPR-1 R/B 4.5 20:15:55 10° NW 20:20:02 42° NNE 20:24:06 10° ESE
Cosmos 2219 Rocket 4.1 20:18:33 10° ESE 20:20:34 12° E 20:22:36 10° ENE
Cosmos 1459 Rocket 4.1 20:15:08 10° N 20:21:11 63° ENE 20:27:10 10° SSE
Cosmos 220 Rocket 4.0 20:19:49 10° SSW 20:24:07 84° ESE 20:28:24 10° NNE
Resurs 01 Rocket 3.4 20:20:39 10° SSW 20:24:29 29° W 20:28:20 10° NNW
Meteor 1-21 4.5 20:25:53 10° SSW 20:31:34 78° WNW 20:37:14 10° NNE
Cosmos 405 4.3 20:30:07 10° N 20:33:09 28° ENE 20:36:11 10° SE
Cosmos 1315 Rocket 4.2 20:30:02 10° NNW 20:33:53 38° W 20:37:44 10° SSW
SPOT 1/Viking Rocket 4.5 20:29:09 10° S 20:34:05 46° W 20:39:02 10° NNW
Cosmos 1470 4.4 20:30:33 10° NNW 20:34:08 32° W 20:37:40 10° SSW
Cosmos 1452 Rocket 3.7 20:29:27 10° S 20:34:36 57° ESE 20:39:47 10° NNE
SL-16 R/B 2.2 20:29:52 10° SSW 20:35:28 66° ESE 20:41:07 10° NE
KORONAS-FOTON 4.0 20:31:52 10° S 20:35:35 52° E 20:39:18 10° NNE
SL-23 DEB 4.2 20:33:46 10° WSW 20:37:29 66° SSE 20:43:40 10° E
CZ-4B DEB 4.4 20:34:27 10° SSE 20:37:36 62° ENE 20:40:45 10° N
Meteor 1-16 Rocket 4.2 20:32:31 10° NNW 20:38:09 89° W 20:43:34 10° S
SL-8 R/B 4.1 20:33:53 10° W 20:38:27 44° S 20:42:59 10° ESE
Cosmos 2056 Rocket 4.3 20:34:37 10° SW 20:39:46 58° WNW 20:45:02 10° NNE
Cosmos 2322 Rocket 2.3 20:34:15 10° SSW 20:39:49 58° ESE 20:45:25 10° NE
Cosmos 2360 Rocket 2.8 20:35:00 10° S 20:40:07 37° ESE 20:45:15 10° NE
CZ-2C R/B 4.4 20:35:45 10° N 20:40:28 63° WNW 20:45:11 10° SSW
Cosmos 1850 Rocket 4.2 20:36:14 10° NNW 20:41:33 71° WSW 20:46:48 10° SSE
Cosmos 1626 2.9 20:38:50 10° SSE 20:42:14 36° E 20:45:39 10° NNE
CARTOSAT-1 4.3 20:39:00 10° S 20:43:11 50° W 20:47:24 10° NNW
COSMOS 2428 4.4 20:44:31 10° SE 20:47:54 16° E 20:51:18 10° ENE
Genesis I 3.2 20:44:18 10° SSW 20:48:07 61° SE 20:52:03 10° NE
Cosmos 1025 Rocket 3.4 20:44:52 10° SSE 20:49:06 48° E 20:53:19 10° NNE
Cosmos 2123 Rocket 4.5 20:44:07 10° SSE 20:50:05 47° E 20:56:06 10° NNE
Cosmos 1975 Rocket 3.1 20:46:40 10° S 20:51:02 86° E 20:55:27 10° NNE
Cosmos 2237 4.4 20:47:42 10° S 20:53:13 53° ESE 20:58:46 10° NE
Cosmos 2100 Rocket 4.2 20:48:45 10° NNW 20:55:09 76° W 21:01:28 10° S
Cosmos 2278 Rocket 3.5 20:53:36 10° NNW 20:58:45 34° NE 21:03:52 10° ESE
Cosmos 2233 Rocket 4.5 20:52:51 10° N 20:58:49 50° ENE 21:04:32 11° SE
NOSS 3-2 (C) 3.5 20:53:35 10° SW 20:59:23 85° SE 21:06:12 10° NE
Cosmos 1980 Rocket 3.9 20:54:44 10° WSW 20:59:57 38° NW 21:05:11 10° NNE
NOSS 3-2 (A) 3.9 20:54:29 10° WSW 21:00:19 70° NW 21:07:14 10° NE
SPOT 5 3.6 20:56:23 10° S 21:01:27 52° W 21:06:19 10° NNW
ARIANE 5 R/B 3.9 20:58:39 10° SSW 21:02:44 35° W 21:06:52 10° NNW
Cosmos 1900 4.3 20:57:51 10° NW 21:02:49 89° SW 21:07:26 12° SE
Cosmos 1300 3.0 21:00:52 10° N 21:04:38 54° ENE 21:07:53 13° SSE
Cosmos 1674 2.8 21:01:03 10° SSW 21:04:46 76° W 21:08:30 10° N
Cosmos 1331 Rocket 4.3 21:00:07 10° S 21:05:08 49° ESE 21:10:14 10° NE
Cosmos 1867 4.3 21:01:57 10° NW 21:07:20 52° NE 21:12:42 10° ESE
Lacrosse 5 rocket 2.8 21:08:00 13° SSE 21:08:55 14° SE 21:10:56 10° E
ERS-1 Rocket 3.9 21:05:43 10° S 21:10:32 44° W 21:15:22 10° NNW
ATLAS 3B R/B 3.5 21:06:09 10° S 21:11:41 30° ESE 21:17:23 10° ENE
Lacrosse 5 3.5 21:12:05 10° W 21:15:46 21° SW 21:19:28 10° S
Cosmos 1844 Rocket 3.1 21:10:37 10° NW 21:16:12 58° WSW 21:21:16 12° S
FALCON 9 DEB 4.5 21:14:08 10° SSW 21:16:41 20° SE 21:19:14 10° E
Cosmos 1908 4.3 21:13:45 10° NNW 21:17:26 40° W 21:21:04 10° SSW
Cosmos 1461 3.5 21:13:29 10° NW 21:17:35 45° SW 21:20:50 14° SSE
Cosmos 2016 Rocket 4.1 21:14:23 10° NNW 21:20:31 77° W 21:26:23 11° S
Cosmos 1953 3.6 21:16:50 10° NNW 21:20:35 36° W 21:24:18 10° SSW
Terra 2.7 21:18:50 10° S 21:23:23 44° W 21:27:58 10° NNW
USA 215 3.5 21:18:39 10° ENE 21:24:54 46° SE 21:31:08 10° SSW
Cosmos 1725 Rocket 4.1 21:24:11 10° NNW 21:30:23 75° W 21:36:06 12° S
Cosmos 1544 Rocket 4.4 21:26:06 10° NNW 21:30:24 47° W 21:34:37 10° SSW
SL-24 R/B 4.4 21:28:42 10° N 21:33:43 86° W 21:38:14 12° S
Cosmos 389 Rocket 3.2 21:30:34 10° N 21:33:49 40° ENE 21:36:16 16° SE
ALOS 2 3.6 21:30:05 12° SE 21:33:50 38° ENE 21:37:55 10° N
Cosmos 1340 2.6 21:31:14 13° S 21:34:34 79° ESE 21:38:22 10° NNE
USA 238 DEB 4.2 21:28:25 10° WSW 21:35:02 64° NNW 21:42:04 10° NE
USA 238 4.2 21:28:31 10° WSW 21:35:08 64° NNW 21:42:10 10° NE
Cosmos 1606 Rocket 4.2 21:31:06 10° N 21:35:28 48° ENE 21:38:58 15° SE
ATLAS CENTAUR R/B 1.6 21:34:52 10° NW 21:39:06 67° SW 21:42:39 16° SSE
SL-14 R/B 3.3 21:35:27 12° SSW 21:39:13 85° W 21:43:18 10° N
Cosmos 2333 Rocket 2.6 21:34:43 11° S 21:39:56 48° ESE 21:45:26 10° NE
SJ 16-02 3.9 21:42:43 10° N 21:45:03 14° NE 21:47:21 10° ENE
Cosmos 1486 Rocket 4.1 21:42:11 10° NNW 21:47:27 75° ENE 21:51:47 15° SSE
GEOS 3 Rocket 4.3 21:44:23 15° SSE 21:48:31 44° SW 21:53:38 10° NW
H-2A R/B 4.3 21:47:13 10° N 21:51:11 49° WNW 21:55:07 10° SW
Cosmos 1943 Rocket 4.2 21:48:00 10° NNW 21:52:25 24° NNE 21:56:48 10° E
CENTAUR R/B 3.5 21:47:44 10° WSW 21:54:02 57° NNW 22:01:36 10° NE
Meteor 1-24 Rocket 3.6 21:50:33 14° S 21:55:06 74° E 22:00:35 10° NNE
Cosmos 1110 Rocket 4.3 21:52:07 10° SW 21:57:16 68° WNW 22:02:31 10° NNE
USA 267 3.4 21:55:00 11° SE 22:01:11 59° SW 22:07:39 10° WNW
Spot 4 3.9 21:58:00 17° S 22:01:43 79° WSW 22:06:32 10° NNW
Cosmos 2219 Rocket 2.3 21:58:17 13° SSW 22:03:22 61° ESE 22:08:59 10° NE
Cosmos 1536 Rocket 4.1 22:01:43 11° SSW 22:06:00 58° WNW 22:10:26 10° N
Cosmos 1607 4.2 22:00:18 10° NW 22:06:48 73° NE 22:13:08 10° SE
DNEPR-1 R/B 4.2 22:03:22 10° NW 22:07:18 38° SW 22:09:57 19° S
Cosmos 968 Rocket 3.7 22:04:54 10° NNW 22:09:57 61° WSW 22:13:42 18° S
COBE Rocket 4.0 22:07:24 18° SSE 22:11:18 89° ENE 22:16:19 10° NNW
Cosmos 2237 Rocket 3.4 22:12:09 16° SSE 22:15:27 27° ESE 22:20:07 10° NE
Cosmos 1626 4.2 22:14:32 10° WSW 22:17:33 23° WNW 22:20:36 10° NNW
SL-16 R/B 3.9 22:14:53 10° WSW 22:20:00 34° NW 22:25:09 10° NNE
Meteor 2-10 Rocket 3.8 22:17:13 10° NNW 22:22:17 56° W 22:26:01 17° S
Cosmos 2369 Rocket 4.4 22:18:23 10° NNW 22:22:58 24° NNE 22:27:32 10° E
Cosmos 2360 Rocket 3.0 22:18:29 10° SW 22:23:59 52° NW 22:29:32 10° NNE
Cosmos 2322 Rocket 3.7 22:18:53 10° WSW 22:24:10 37° NW 22:29:29 10° NNE
Iridium 2 3.6 22:23:25 21° S 22:25:50 84° E 22:29:37 10° N
SAR-Lupe-2 4.3 22:26:02 10° NNE 22:29:27 39° E 22:31:21 21° SSE
COSMOS 2428 2.7 22:26:04 13° SSW 22:31:15 77° ESE 22:37:02 10° NE
Cosmos 2228 3.8 22:29:26 10° NNW 22:33:37 43° W 22:36:41 17° SSW
Cosmos 1455 2.2 22:30:13 10° NNW 22:34:05 76° W 22:36:27 22° S
Cosmos 2322 3.9 22:30:59 10° SW 22:36:38 76° WNW 22:42:20 10° NNE
Cosmos 1346 Rocket 3.0 22:35:16 17° SSW 22:38:13 68° WNW 22:42:15 10° N
Cosmos 2278 Rocket 2.3 22:37:37 10° NW 22:43:15 65° WSW 22:47:26 18° SSE
SL-4 R/B 4.1 22:44:56 10° SE 22:44:56 10° SE 22:45:00 10° ESE
Cosmos 1184 Rocket 3.1 22:42:42 25° SSE 22:44:19 53° E 22:47:31 10° NNE
Cosmos 2058 Rocket 3.1 22:40:07 10° NNW 22:44:37 79° W 22:47:35 21° S
Cosmos 1503 Rocket 4.2 22:40:48 10° NNW 22:46:10 68° WSW 22:50:01 19° S
Lacrosse 5 rocket 0.9 22:43:50 10° SW 22:47:25 66° SSE 22:50:59 10° ENE
Cosmos 1812 Rocket 4.5 22:46:35 10° N 22:50:42 41° ENE 22:54:11 14° SE
GP-B 3.9 22:46:29 10° NNE 22:50:44 42° E 22:53:50 17° SSE
Cosmos 1867 4.1 22:45:44 10° NW 22:50:57 45° WSW 22:54:32 19° S
FALCON 9 DEB 3.0 22:49:45 10° WSW 22:53:07 60° SSE 22:56:30 10° E
MTI 3.5 22:51:10 10° NNE 22:54:14 81° ESE 22:55:46 27° S
Thor Agena Rocket 3.9 22:50:37 10° NNE 22:55:50 56° ESE 22:59:29 19° S
Meteor 2-1 Rocket 4.2 22:52:49 10° NNW 22:58:19 71° W 23:02:19 19° S
ATLAS 3B R/B 2.7 22:55:08 10° SW 23:01:45 83° NW 23:08:40 10° NE
BREEZE-M DEB (TANK) 3.2 22:59:57 10° WSW 23:03:37 61° SSE 23:14:48 10° E
Meteor 1-4 Rocket 2.6 23:01:19 10° N 23:04:52 70° ENE 23:06:59 22° SSE
USA 215 3.3 23:01:45 10° ENE 23:08:19 87° NNW 23:14:53 10° WSW
ALOS 2 3.8 23:07:29 17° SSW 23:10:14 32° W 23:14:12 10° NNW
Cosmos 1703 3.2 23:10:30 22° SSW 23:12:58 87° W 23:16:57 10° N
Cosmos 1328 3.9 23:13:54 22° S 23:16:16 66° E 23:20:09 10° NNE
ATLAS CENTAUR R/B 3.7 23:15:25 10° W 23:17:19 13° WSW 23:18:46 11° SW
Cosmos 1892 Rocket 4.2 23:14:58 16° SW 23:18:18 48° WNW 23:22:39 10° N
NOSS 0 Rocket 3.9 23:14:36 15° SSW 23:19:56 85° ESE 23:26:14 10° NE
BREEZE-M DEB (TANK) 4.4 23:19:34 10° W 23:23:54 66° S 23:40:16 10° ESE
Cosmos 2333 Rocket 3.3 23:18:52 10° WSW 23:24:20 43° NW 23:29:48 10° NNE
Cosmos 1441 Rocket 3.2 23:21:51 21° SSW 23:24:21 77° WNW 23:28:12 10° N
SJ 16-02 1.7 23:20:09 10° NNW 23:24:32 64° ENE 23:28:33 12° SE
Cosmos 1980 3.7 23:20:08 17° SSW 23:24:40 81° ESE 23:30:23 10° NNE
PSLV R/B 3.6 23:20:33 10° NNE 23:24:48 68° ESE 23:27:42 20° S
FALCON 9 DEB 3.5 23:24:51 26° SSW 23:26:02 37° SSE 23:28:58 10° E
Cosmos 1892 4.4 23:30:01 12° SE 23:32:47 26° E 23:36:03 10° NNE
Cosmos 1634 Rocket 4.1 23:29:38 10° N 23:35:59 85° E 23:41:22 15° SSE
Cosmos 1943 Rocket 2.3 23:31:30 10° NNW 23:37:03 78° ENE 23:42:34 10° SE
Cosmos 1777 Rocket 4.2 23:35:07 10° NNW 23:40:18 57° WSW 23:44:11 18° S
Cosmos 2279 Rocket 4.4 23:34:11 10° N 23:40:25 63° ENE 23:46:29 11° SSE
Aureole 3 3.0 23:38:20 10° NNW 23:41:40 88° WSW 23:44:20 19° S
Cosmos 724 4.4 23:35:42 10° NW 23:41:54 72° SW 23:47:56 10° SSE
USA 267 4.5 23:42:18 16° SSW 23:45:11 21° SW 23:49:58 10° WNW
CENTAUR R/B 4.4 23:39:41 10° WNW 23:46:11 39° N 23:53:44 10° ENE
Cosmos 2219 Rocket 3.6 23:42:29 10° WSW 23:47:41 36° NW 23:52:54 10° NNE
EO 1 Del DPAF 3.1 23:46:25 10° NNE 23:50:11 85° ESE 23:52:37 21° SSW
Cosmos 1626 Rocket 3.9 23:47:31 18° SSW 23:50:44 62° WNW 23:55:10 10° N
FALCON 9 DEB 3.0 23:49:03 18° SW 23:51:10 50° SSE 23:54:13 10° E
FALCON 9 DEB 2.9 23:48:59 14° WSW 23:51:29 57° SSE 23:54:32 10° E
SL-16 R/B 2.7 23:48:19 17° S 23:52:28 51° ESE 23:57:57 10° NE
